PUC2539 KMIA-SUMU

Flight info

Callsign PUC2539
Flight time N/A
Altitude 29000
Route GWAVA2 URSUS UP406 BILSI DCT ALTIB UL795 LENAX UL417 NEFTU UP525 PALUG/N0495F310 UP525 RCO UL417 LOKOX UM784 BOLET/N0484F330 UM784 SIS UZ120 GEMSU UP526 DUR P526 MONSA
Aircraft B77L/H-SDE1E2E3FGHIJ2J3J4J5M1RWXY/LB1D1

Departure

Time N/A
Airport Miami International Airport (KMIA)

Arrival

Time 2026-04-23 11:43
Airport Carrasco General Cesáreo L. Berisso International Airport (SUMU)
Time Latitude Longitude Altitude Speed Heading
2026-04-23 10:45 -28.40677 -58.58673 31151 ft 519 kts 162°
2026-04-23 10:45 -28.43986 -58.57034 31135 ft 518 kts 161°
2026-04-23 10:45 -28.50578 -58.53768 31131 ft 516 kts 161°
2026-04-23 10:46 -28.57147 -58.50508 31134 ft 514 kts 161°
2026-04-23 10:46 -28.63703 -58.47251 31152 ft 513 kts 161°
2026-04-23 10:47 -28.70206 -58.44003 31141 ft 513 kts 161°
2026-04-23 10:47 -28.76743 -58.40724 31145 ft 513 kts 161°
2026-04-23 10:48 -28.83281 -58.37440 31160 ft 514 kts 161°
2026-04-23 10:48 -28.89841 -58.34141 31152 ft 516 kts 161°
2026-04-23 10:49 -28.96414 -58.30831 31157 ft 516 kts 161°
2026-04-23 10:49 -29.02973 -58.27524 31153 ft 516 kts 161°
2026-04-23 10:50 -29.09547 -58.24206 31165 ft 517 kts 162°
2026-04-23 10:50 -29.16146 -58.20870 31160 ft 519 kts 162°
2026-04-23 10:51 -29.22749 -58.17525 31165 ft 519 kts 162°
2026-04-23 10:51 -29.29351 -58.14178 31180 ft 519 kts 161°
2026-04-23 10:52 -29.35958 -58.10823 31168 ft 519 kts 161°
2026-04-23 10:52 -29.42561 -58.07464 31164 ft 519 kts 161°
2026-04-23 10:53 -29.49130 -58.03991 31175 ft 519 kts 160°
2026-04-23 10:53 -29.55692 -58.00466 31177 ft 522 kts 160°
2026-04-23 10:54 -29.62229 -57.96979 31182 ft 524 kts 160°
2026-04-23 10:54 -29.68884 -57.93537 31189 ft 525 kts 161°
2026-04-23 10:55 -29.75543 -57.90156 31183 ft 518 kts 161°
2026-04-23 10:55 -29.82094 -57.86811 31176 ft 515 kts 161°
2026-04-23 10:56 -29.88651 -57.83448 31185 ft 516 kts 161°
2026-04-23 10:56 -29.95217 -57.80070 31194 ft 519 kts 161°
2026-04-23 10:57 -30.01784 -57.76687 31201 ft 522 kts 161°
2026-04-23 10:57 -30.08434 -57.73255 31195 ft 525 kts 161°
2026-04-23 10:58 -30.15115 -57.69802 31206 ft 527 kts 162°
2026-04-23 10:58 -30.21827 -57.66328 31199 ft 529 kts 162°
2026-04-23 10:59 -30.28602 -57.63027 31200 ft 524 kts 168°
2026-04-23 10:59 -30.35537 -57.60545 31207 ft 520 kts 171°
2026-04-23 11:00 -30.42475 -57.58159 31197 ft 520 kts 170°
2026-04-23 11:00 -30.49405 -57.55715 31201 ft 520 kts 170°
2026-04-23 11:01 -30.56318 -57.53238 31200 ft 520 kts 170°
2026-04-23 11:01 -30.63234 -57.50754 31206 ft 521 kts 170°
2026-04-23 11:02 -30.70165 -57.48266 31199 ft 521 kts 170°
2026-04-23 11:02 -30.77098 -57.45774 31200 ft 522 kts 170°
2026-04-23 11:03 -30.84030 -57.43277 31206 ft 522 kts 170°
2026-04-23 11:03 -30.90959 -57.40772 31196 ft 521 kts 170°
2026-04-23 11:04 -30.97884 -57.38262 31198 ft 521 kts 170°
2026-04-23 11:04 -31.04776 -57.35760 31206 ft 521 kts 171°
2026-04-23 11:05 -31.11693 -57.33248 31198 ft 520 kts 171°
2026-04-23 11:05 -31.18601 -57.30735 31200 ft 520 kts 171°
2026-04-23 11:06 -31.28972 -57.26955 31207 ft 521 kts 171°
2026-04-23 11:07 -31.35904 -57.24424 31206 ft 522 kts 171°
2026-04-23 11:07 -31.42850 -57.21882 31226 ft 523 kts 171°
2026-04-23 11:08 -31.49813 -57.19332 31206 ft 525 kts 171°
2026-04-23 11:08 -31.56805 -57.16766 31208 ft 527 kts 171°
2026-04-23 11:09 -31.63804 -57.14192 31228 ft 527 kts 171°
2026-04-23 11:09 -31.70801 -57.11614 31216 ft 527 kts 171°
2026-04-23 11:10 -31.77790 -57.09036 31203 ft 525 kts 171°
2026-04-23 11:10 -31.84746 -57.06440 31204 ft 524 kts 171°
2026-04-23 11:11 -31.91685 -57.03836 31210 ft 522 kts 171°
2026-04-23 11:11 -31.98609 -57.01277 31209 ft 522 kts 172°
2026-04-23 11:12 -32.05439 -56.98755 31234 ft 522 kts 172°
2026-04-23 11:12 -32.12374 -56.96185 31218 ft 523 kts 172°
2026-04-23 11:13 -32.19308 -56.93605 31212 ft 522 kts 172°
2026-04-23 11:13 -32.26242 -56.91020 31241 ft 522 kts 172°
2026-04-23 11:14 -32.33153 -56.88441 31224 ft 520 kts 172°
2026-04-23 11:14 -32.40044 -56.85865 31206 ft 518 kts 172°
2026-04-23 11:15 -32.46898 -56.83300 31222 ft 516 kts 172°
2026-04-23 11:15 -32.53729 -56.80740 31207 ft 514 kts 172°
2026-04-23 11:16 -32.60553 -56.78170 31220 ft 514 kts 172°
2026-04-23 11:16 -32.67372 -56.75588 31254 ft 514 kts 172°
2026-04-23 11:17 -32.74141 -56.73022 31225 ft 514 kts 172°
2026-04-23 11:17 -32.80957 -56.70435 31221 ft 514 kts 172°
2026-04-23 11:18 -32.87765 -56.67846 31244 ft 513 kts 172°
2026-04-23 11:18 -32.94568 -56.65256 31221 ft 513 kts 172°
2026-04-23 11:19 -33.01223 -56.62702 31197 ft 488 kts 172°
2026-04-23 11:19 -33.04404 -56.61477 31193 ft 473 kts 173°
2026-04-23 11:19 -33.07509 -56.60291 30930 ft 466 kts 172°
2026-04-23 11:19 -33.10593 -56.59123 30528 ft 463 kts 172°
2026-04-23 11:20 -33.13648 -56.57964 30092 ft 460 kts 172°
2026-04-23 11:20 -33.16689 -56.56802 29618 ft 457 kts 172°
2026-04-23 11:20 -33.19703 -56.55648 29185 ft 453 kts 172°
2026-04-23 11:20 -33.22693 -56.54508 28785 ft 448 kts 172°
2026-04-23 11:21 -33.25655 -56.53382 28371 ft 445 kts 172°
2026-04-23 11:21 -33.28590 -56.52267 27987 ft 441 kts 172°
2026-04-23 11:21 -33.31501 -56.51160 27585 ft 437 kts 172°
2026-04-23 11:21 -33.34387 -56.50060 27183 ft 434 kts 172°
2026-04-23 11:22 -33.37257 -56.48994 26786 ft 429 kts 173°
2026-04-23 11:22 -33.40115 -56.48058 26395 ft 424 kts 175°
2026-04-23 11:22 -33.42957 -56.47189 26002 ft 420 kts 175°
2026-04-23 11:22 -33.45784 -56.46337 25609 ft 417 kts 175°
2026-04-23 11:23 -33.48594 -56.45484 25246 ft 415 kts 175°
2026-04-23 11:23 -33.51385 -56.44626 24831 ft 414 kts 174°
2026-04-23 11:23 -33.53223 -56.44054 24574 ft 412 kts 174°
2026-04-23 11:23 -33.56002 -56.43184 24178 ft 410 kts 174°
2026-04-23 11:24 -33.58757 -56.42317 23783 ft 408 kts 174°
2026-04-23 11:24 -33.61496 -56.41452 23332 ft 406 kts 174°
2026-04-23 11:24 -33.64217 -56.40592 22920 ft 403 kts 174°
2026-04-23 11:24 -33.66920 -56.39737 22525 ft 400 kts 174°
2026-04-23 11:25 -33.69594 -56.38891 22158 ft 397 kts 174°
2026-04-23 11:25 -33.72265 -56.38046 21751 ft 394 kts 174°
2026-04-23 11:25 -33.74903 -56.37212 21366 ft 391 kts 173°
2026-04-23 11:25 -33.77525 -56.36383 20970 ft 388 kts 173°
2026-04-23 11:26 -33.80130 -56.35558 20597 ft 386 kts 173°
2026-04-23 11:26 -33.82722 -56.34737 20205 ft 384 kts 173°
2026-04-23 11:26 -33.85296 -56.33920 19838 ft 382 kts 173°
2026-04-23 11:26 -33.87862 -56.33106 19457 ft 380 kts 173°
2026-04-23 11:27 -33.90414 -56.32296 19084 ft 378 kts 172°
2026-04-23 11:27 -33.92954 -56.31490 18701 ft 377 kts 172°
2026-04-23 11:27 -33.95490 -56.30685 18270 ft 376 kts 172°
2026-04-23 11:27 -33.98013 -56.29883 17856 ft 374 kts 172°
2026-04-23 11:28 -34.00520 -56.29085 17455 ft 372 kts 172°
2026-04-23 11:28 -34.03013 -56.28292 17077 ft 370 kts 172°
2026-04-23 11:28 -34.05496 -56.27501 16707 ft 368 kts 171°
2026-04-23 11:28 -34.07962 -56.26715 16337 ft 365 kts 171°
2026-04-23 11:29 -34.10412 -56.25934 15960 ft 363 kts 171°
2026-04-23 11:29 -34.12852 -56.25156 15591 ft 362 kts 171°
2026-04-23 11:29 -34.15278 -56.24381 15235 ft 361 kts 170°
2026-04-23 11:29 -34.17829 -56.23579 14875 ft 409 kts 170°
2026-04-23 11:30 -34.20736 -56.22665 14639 ft 444 kts 169°
2026-04-23 11:30 -34.23637 -56.21723 14783 ft 415 kts 169°
2026-04-23 11:30 -34.26337 -56.20838 14302 ft 390 kts 169°
2026-04-23 11:30 -34.28843 -56.20028 14102 ft 357 kts 170°
2026-04-23 11:31 -34.31157 -56.19283 13672 ft 333 kts 170°
2026-04-23 11:31 -34.33347 -56.18584 12937 ft 321 kts 171°
2026-04-23 11:31 -34.35508 -56.18226 12043 ft 308 kts 186°
2026-04-23 11:31 -34.37583 -56.18514 11725 ft 294 kts 193°
2026-04-23 11:32 -34.39594 -56.18880 11376 ft 290 kts 193°
2026-04-23 11:32 -34.41582 -56.19244 11065 ft 287 kts 193°
2026-04-23 11:32 -34.43555 -56.19605 10744 ft 288 kts 193°
2026-04-23 11:32 -34.45545 -56.19967 10567 ft 288 kts 192°
2026-04-23 11:33 -34.47503 -56.20318 10430 ft 282 kts 192°
2026-04-23 11:33 -34.49406 -56.20657 10283 ft 271 kts 193°
2026-04-23 11:33 -34.51242 -56.20983 10099 ft 263 kts 193°
2026-04-23 11:33 -34.53064 -56.21310 9803 ft 266 kts 193°
2026-04-23 11:34 -34.54913 -56.21643 9484 ft 272 kts 193°
2026-04-23 11:34 -34.56792 -56.21980 9177 ft 274 kts 193°
2026-04-23 11:34 -34.58669 -56.22314 8846 ft 271 kts 193°
2026-04-23 11:34 -34.60519 -56.22642 8518 ft 266 kts 193°
2026-04-23 11:35 -34.62336 -56.22965 8236 ft 262 kts 193°
2026-04-23 11:35 -34.64124 -56.23283 7944 ft 257 kts 193°
2026-04-23 11:35 -34.65879 -56.23595 7638 ft 255 kts 193°
2026-04-23 11:35 -34.67742 -56.23930 7352 ft 261 kts 193°
2026-04-23 11:36 -34.71375 -56.24580 6777 ft 263 kts 192°
2026-04-23 11:36 -34.74936 -56.25213 6144 ft 255 kts 193°
2026-04-23 11:36 -34.78411 -56.25834 5547 ft 250 kts 193°
2026-04-23 11:36 -34.81839 -56.26449 4980 ft 250 kts 192°
2026-04-23 11:37 -34.83795 -56.26799 4655 ft 252 kts 192°
2026-04-23 11:37 -34.84661 -56.26951 4502 ft 250 kts 189°
2026-04-23 11:37 -34.85706 -56.26955 4305 ft 252 kts 172°
2026-04-23 11:37 -34.86545 -56.26650 4226 ft 253 kts 159°
2026-04-23 11:38 -34.88336 -56.25344 3903 ft 258 kts 148°
2026-04-23 11:38 -34.89782 -56.24024 3750 ft 261 kts 146°
2026-04-23 11:38 -34.91211 -56.22700 3542 ft 253 kts 145°
2026-04-23 11:38 -34.92328 -56.21169 3259 ft 235 kts 116°
2026-04-23 11:39 -34.92652 -56.19292 3047 ft 223 kts 89°
2026-04-23 11:39 -34.92422 -56.17478 3044 ft 214 kts 73°
2026-04-23 11:39 -34.91726 -56.15894 2753 ft 212 kts 55°
2026-04-23 11:39 -34.90873 -56.14511 2509 ft 198 kts 53°
2026-04-23 11:40 -34.90041 -56.13180 2051 ft 197 kts 54°
2026-04-23 11:40 -34.89249 -56.11905 1827 ft 191 kts 53°
2026-04-23 11:40 -34.88430 -56.10587 1511 ft 194 kts 54°
2026-04-23 11:40 -34.87730 -56.09452 1246 ft 184 kts 54°
2026-04-23 11:41 -34.86993 -56.08251 980 ft 169 kts 54°
2026-04-23 11:41 -34.86418 -56.07309 784 ft 152 kts 53°
2026-04-23 11:41 -34.85795 -56.06288 622 ft 150 kts 53°
2026-04-23 11:41 -34.85177 -56.05273 407 ft 149 kts 52°
2026-04-23 11:42 -34.84560 -56.04267 215 ft 148 kts 52°
2026-04-23 11:42 -34.83954 -56.03270 95 ft 141 kts 52°
2026-04-23 11:42 -34.83428 -56.02410 96 ft 109 kts 53°
2026-04-23 11:42 -34.83068 -56.01820 97 ft 65 kts 53°
2026-04-23 11:43 -34.82888 -56.01523 108 ft 29 kts 53°
2026-04-23 11:43 -34.82800 -56.01374 112 ft 14 kts 63°
2026-04-23 11:43 -34.82832 -56.01277 111 ft 14 kts 141°
2026-04-23 11:43 -34.82892 -56.01228 112 ft 8 kts 172°
2026-04-23 11:44 -34.82940 -56.01269 111 ft 10 kts 229°
2026-04-23 11:44 -34.82987 -56.01344 110 ft 13 kts 234°
2026-04-23 11:44 -34.83046 -56.01441 107 ft 15 kts 233°
2026-04-23 11:44 -34.83113 -56.01551 103 ft 16 kts 233°
2026-04-23 11:45 -34.83183 -56.01667 96 ft 18 kts 233°
2026-04-23 11:45 -34.83232 -56.01748 96 ft 12 kts 234°
2026-04-23 11:45 -34.83282 -56.01833 92 ft 11 kts 234°
2026-04-23 11:45 -34.83352 -56.01849 86 ft 13 kts 149°
2026-04-23 11:46 -34.83411 -56.01795 85 ft 12 kts 143°
2026-04-23 11:46 -34.83475 -56.01757 74 ft 9 kts 192°
2026-04-23 11:46 -34.83520 -56.01806 67 ft 9 kts 232°
2026-04-23 11:46 -34.83556 -56.01867 69 ft 9 kts 234°
2026-04-23 11:47 -34.83592 -56.01927 69 ft 9 kts 234°
2026-04-23 11:47 -34.83628 -56.01988 67 ft 9 kts 233°
2026-04-23 11:47 -34.83665 -56.02048 69 ft 9 kts 233°
2026-04-23 11:47 -34.83701 -56.02107 67 ft 9 kts 233°
2026-04-23 11:48 -34.83738 -56.02167 70 ft 9 kts 233°
2026-04-23 11:48 -34.83778 -56.02222 74 ft 9 kts 213°
2026-04-23 11:48 -34.83848 -56.02241 65 ft 10 kts 186°
2026-04-23 11:48 -34.83919 -56.02247 61 ft 10 kts 191°
2026-04-23 11:49 -34.83948 -56.02325 60 ft 11 kts 267°
2026-04-23 11:49 -34.83919 -56.02379 60 ft 8 kts 349°
2026-04-23 11:49 -34.83884 -56.02381 59 ft 5 kts
2026-04-23 11:49 -34.83879 -56.02381 58 ft 1 kts
2026-04-23 11:50 -34.83873 -56.02380 59 ft 0 kts